EW7351 Weather Reports


time (UTC)temp
C
wind
direction
speed
KPH
gust
KPH
rain 1hr
cm
rain 24hr
cm
rain mn
cm
humidity
%
barometer
mb
20260904104356 25 122 1.6 8.0 0.00 0.00 0.00 83 1012.3
20260904103832 25 117 1.6 8.0 0.00 0.00 0.00 83 1012.3
20260904103524 25 134 1.6 6.4 0.00 0.00 0.00 83 1012.2
20260904102803 25 231 3.2 9.7 0.00 0.00 0.00 83 1012.2
20260904102236 25 149 1.6 9.7 0.00 0.00 0.00 83 1012.2
20260904101708 25 143 1.6 6.4 0.00 0.00 0.00 82 1012.1
20260904101141 25 124 1.6 8.0 0.00 0.00 0.00 82 1012.2
20260904100639 25 101 1.6 8.0 0.00 0.00 0.00 82 1012.2
20260904100111 25 133 1.6 12.9 0.00 0.00 0.00 82 1012.1
20260904095543 25 171 1.6 12.9 0.00 0.00 0.00 81 1012.1
20260904095043 25 236 1.6 6.4 0.00 0.00 0.00 81 1012.1
20260904094514 25 131 1.6 8.0 0.00 0.00 0.00 80 1012.1
20260904093950 25 154 1.6 8.0 0.00 0.00 0.00 80 1012.2
20260904093429 25 206 1.6 8.0 0.00 0.00 0.00 80 1012.1
20260904092928 25 184 1.6 8.0 0.00 0.00 0.00 80 1012.0
20260904092407 25 207 1.6 6.4 0.00 0.00 0.00 80 1012.0
20260904091907 25 142 1.6 12.9 0.00 0.00 0.00 79 1012.0
20260904091405 25 120 3.2 12.9 0.00 0.00 0.00 79 1012.0
20260904091121 25 228 1.6 11.3 0.00 0.00 0.00 79 1012.1
20260904090401 25 130 1.6 8.0 0.00 0.00 0.00 79 1012.1
20260904085833 25 158 3.2 8.0 0.00 0.00 0.00 79 1012.1
20260904085531 25 139 1.6 8.0 0.00 0.03 0.00 79 1012.1
20260904084740 25 201 1.6 8.0 0.00 0.03 0.00 79 1012.1
20260904084723 25 127 0.0 4.8 0.00 0.03 0.00 79 1012.0
20260904083734 25 122 1.6 9.7 0.00 0.03 0.00 78 1012.1
20260904083205 25 131 1.6 9.7 0.00 0.03 0.00 78 1012.0
20260904082706 25 217 1.6 8.0 0.00 0.03 0.00 78 1012.0
20260904082205 25 133 1.6 8.0 0.00 0.03 0.00 78 1011.9
20260904081704 25 117 1.6 4.8 0.00 0.03 0.00 78 1012.0
20260904081135 25 139 0.0 3.2 0.00 0.03 0.00 77 1012.0
20260904080634 25 138 0.0 3.2 0.00 0.03 0.00 77 1012.1
20260904080109 25 129 0.0 3.2 0.00 0.03 0.00 77 1012.1
20260904075555 25 116 0.0 3.2 0.00 0.03 0.00 77 1012.0
20260904075058 25 260 0.0 4.8 0.00 0.03 0.00 76 1011.9
20260904074753 25 120 0.0 8.0 0.00 0.03 0.00 76 1011.7
20260904074025 25 131 1.6 8.0 0.00 0.03 0.00 76 1011.9
20260904074001 25 132 1.6 8.0 0.00 0.03 0.00 76 1011.7
20260904073500 25 136 3.2 8.0 0.00 0.03 0.00 76 1011.7
20260904072514 25 221 1.6 8.0 0.00 0.03 0.00 75 1011.9
20260904072009 25 150 1.6 6.4 0.00 0.03 0.00 75 1012.0
20260904071507 25 119 1.6 4.8 0.00 0.03 0.00 75 1012.0
20260904071227 25 132 1.6 4.8 0.00 0.03 0.00 75 1012.0
20260904070504 25 195 1.6 6.4 0.00 0.03 0.00 74 1012.1
20260904065933 25 211 1.6 6.4 0.00 0.03 0.00 74 1012.1
20260904065432 25 161 1.6 8.0 0.00 0.03 0.00 74 1012.1
20260904064906 26 126 1.6 8.0 0.00 0.03 0.00 74 1012.1
20260904064337 26 188 3.2 8.0 0.00 0.03 0.00 73 1012.2
20260904063827 26 221 3.2 9.7 0.00 0.03 0.00 73 1012.2
20260904063323 26 144 4.8 11.3 0.00 0.03 0.00 73 1012.2
20260904062821 26 238 3.2 11.3 0.00 0.03 0.00 73 1012.2
20260904062253 26 142 1.6 8.0 0.00 0.03 0.00 73 1012.1
20260904062017 26 188 3.2 9.7 0.00 0.03 0.00 72 1012.1
20260904061225 26 262 4.8 9.7 0.00 0.03 0.00 72 1012.1
20260904060701 26 233 3.2 9.7 0.00 0.03 0.00 72 1012.1
20260904060202 26 128 3.2 9.7 0.00 0.03 0.00 71 1012.2
20260904055633 26 198 3.2 11.3 0.00 0.03 0.00 70 1012.2
20260904055129 26 215 4.8 8.0 0.00 0.03 0.00 70 1012.2
20260904054608 26 207 4.8 11.3 0.00 0.03 0.00 70 1012.2
20260904054034 26 233 4.8 12.9 0.00 0.03 0.00 69 1012.1
20260904053531 26 171 4.8 12.9 0.00 0.03 0.00 69 1012.1
20260904053027 26 230 4.8 11.3 0.00 0.03 0.00 69 1012.0
20260904052507 26 156 4.8 11.3 0.00 0.03 0.00 69 1012.0
20260904052007 26 151 3.2 9.7 0.00 0.03 0.00 69 1012.0
20260904051504 26 197 3.2 9.7 0.00 0.03 0.00 68 1012.1
20260904050951 26 162 3.2 12.9 0.00 0.03 0.00 68 1012.0
20260904050447 26 247 4.8 12.9 0.00 0.03 0.00 68 1012.0
20260904045927 26 160 3.2 11.3 0.00 0.03 0.03 67 1012.0
20260904045425 26 194 3.2 11.3 0.00 0.03 0.03 67 1012.1
20260904044925 26 188 3.2 9.7 0.00 0.03 0.03 66 1012.1
20260904044422 26 94 3.2 9.7 0.00 0.03 0.03 66 1012.1
20260904043921 26 139 3.2 9.7 0.00 0.03 0.03 66 1012.1
20260904043419 26 125 4.8 9.7 0.00 0.03 0.03 65 1012.1
20260904042922 26 188 4.8 14.5 0.00 0.03 0.03 65 1012.2
20260904042352 27 186 4.8 14.5 0.00 0.03 0.03 65 1012.3
20260904041851 27 221 3.2 12.9 0.00 0.03 0.03 65 1012.2
20260904041355 27 229 4.8 9.7 0.00 0.03 0.03 65 1012.3
20260904040835 27 220 4.8 11.3 0.00 0.03 0.03 65 1012.2
20260904040310 27 150 4.8 9.7 0.00 0.03 0.03 64 1012.2
20260904035803 27 256 4.8 11.3 0.00 0.03 0.03 64 1012.2
20260904035245 27 254 4.8 9.7 0.00 0.03 0.03 64 1012.1
20260904034743 27 207 3.2 11.3 0.00 0.03 0.03 64 1012.1
20260904034245 27 194 3.2 11.3 0.00 0.03 0.03 64 1012.1
20260904033725 27 117 3.2 12.9 0.00 0.03 0.03 64 1012.2
20260904033218 27 127 4.8 11.3 0.00 0.03 0.03 64 1012.2
20260904032659 27 200 4.8 16.1 0.00 0.03 0.03 64 1012.2
20260904032138 27 266 4.8 16.1 0.00 0.03 0.03 64 1012.4
20260904031641 27 242 4.8 16.1 0.00 0.03 0.03 64 1012.3
20260904031116 27 113 4.8 9.7 0.00 0.03 0.03 64 1012.2
20260904030559 27 200 6.4 16.1 0.00 0.03 0.03 64 1012.2
20260904030256 27 98 6.4 14.5 0.00 0.03 0.03 64 1012.0
20260904025510 27 117 6.4 19.3 0.00 0.03 0.03 64 1012.0
20260904025005 27 245 6.4 19.3 0.00 0.03 0.03 64 1011.9
20260904024503 27 131 4.8 12.9 0.00 0.03 0.03 64 1011.9
20260904024004 27 181 4.8 12.9 0.00 0.03 0.03 64 1011.7
20260904023439 28 250 6.4 12.9 0.00 0.03 0.03 65 1011.5
20260904022913 28 172 4.8 16.1 0.00 0.03 0.03 65 1011.5
20260904022410 28 82 4.8 16.1 0.00 0.03 0.03 66 1011.4
20260904021910 28 244 4.8 12.9 0.00 0.03 0.03 67 1011.2
20260904021409 28 133 4.8 17.7 0.00 0.03 0.03 66 1011.1
20260904020905 28 165 6.4 16.1 0.00 0.03 0.03 65 1011.1
20260904020341 28 207 6.4 17.7 0.00 0.03 0.03 64 1011.1
20260904015812 28 120 4.8 14.5 0.00 0.03 0.03 64 1010.9
20260904015308 28 218 3.2 12.9 0.00 0.03 0.03 64 1010.9
20260904014806 28 115 3.2 11.3 0.00 0.03 0.03 65 1010.8
20260904014305 28 133 6.4 11.3 0.00 0.03 0.03 65 1010.8
20260904013736 28 126 6.4 14.5 0.00 0.03 0.03 64 1010.8
20260904013211 28 124 4.8 14.5 0.00 0.03 0.03 64 1010.7
20260904012642 29 170 6.4 12.9 0.00 0.03 0.03 64 1010.6
20260904012338 29 195 6.4 14.5 0.00 0.03 0.03 64 1010.6
20260904011608 29 151 4.8 14.5 0.00 0.03 0.03 65 1010.5
20260904011044 29 108 4.8 16.1 0.00 0.03 0.03 64 1010.4
20260904010744 29 115 4.8 16.1 0.00 0.03 0.03 64 1010.4
20260904010022 29 152 4.8 17.7 0.00 0.03 0.03 63 1010.4
20260904005523 29 144 6.4 17.7 0.00 0.03 0.03 63 1010.5
20260904005022 29 96 4.8 14.5 0.00 0.03 0.03 63 1010.5
20260904004518 30 216 6.4 20.9 0.00 0.03 0.03 62 1010.5
20260904004239 30 136 8.0 20.9 0.00 0.03 0.03 62 1010.5
20260904003511 30 112 6.4 14.5 0.00 0.03 0.03 61 1010.4
20260904002947 30 180 8.0 20.9 0.00 0.03 0.03 60 1010.4
20260904002420 30 152 9.7 22.5 0.00 0.03 0.03 59 1010.4
20260904001915 30 105 9.7 22.5 0.00 0.03 0.03 58 1010.3
20260904001634 30 119 9.7 20.9 0.00 0.03 0.03 57 1010.3
20260904000910 31 117 8.0 20.9 0.00 0.03 0.03 56 1010.3
20260904000406 31 166 6.4 14.5 0.00 0.03 0.03 55 1010.3
20260903235904 31 110 8.0 16.1 0.00 0.03 0.03 55 1010.3
20260903235336 31 122 8.0 19.3 0.00 0.03 0.03 55 1010.3
20260903235055 31 136 8.0 20.9 0.00 0.03 0.03 55 1010.2
20260903234331 31 124 4.8 20.9 0.00 0.03 0.03 55 1010.2
20260903233828 31 279 6.4 22.5 0.00 0.03 0.03 56 1010.2
20260903233312 31 126 8.0 22.5 0.00 0.03 0.03 56 1010.2
20260903232744 31 167 8.0 20.9 0.00 0.03 0.03 57 1010.0
20260903232242 31 137 9.7 20.9 0.00 0.03 0.03 56 1010.0
20260903232159 31 142 9.7 20.9 0.00 0.03 0.03 56 1010.1
20260903231148 31 131 9.7 22.5 0.00 0.03 0.03 56 1010.1
20260903230912 31 137 9.7 22.5 0.00 0.03 0.03 55 1010.0
20260903230119 31 110 9.7 20.9 0.00 0.03 0.03 55 1010.0
20260903225615 32 149 8.0 20.9 0.00 0.03 0.03 54 1010.0
20260903225113 32 143 8.0 16.1 0.00 0.03 0.03 54 1010.0
20260903224549 32 154 6.4 19.3 0.00 0.03 0.03 54 1009.9
20260903224020 32 223 6.4 17.7 0.00 0.03 0.03 53 1009.9
20260903223516 32 141 6.4 17.7 0.00 0.05 0.03 54 1009.9
20260903223211 32 116 8.0 17.7 0.00 0.13 0.03 53 1009.9
20260903222641 32 217 8.0 19.3 0.00 0.13 0.03 53 1009.9
20260903221918 32 107 9.7 19.3 0.00 0.13 0.03 54 1009.9
20260903221640 32 153 9.7 20.9 0.00 0.13 0.03 53 1009.9
20260903220914 32 108 9.7 20.9 0.00 0.13 0.03 52 1009.9
20260903220349 32 113 9.7 19.3 0.00 0.13 0.03 53 1009.9
20260903215842 32 145 9.7 20.9 0.00 0.13 0.03 52 1010.0
20260903215314 32 262 8.0 20.9 0.00 0.13 0.03 52 1010.1
20260903214808 32 91 8.0 17.7 0.00 0.13 0.03 52 1010.1
20260903214306 32 203 9.7 17.7 0.00 0.13 0.03 52 1010.2
20260903213738 32 171 8.0 17.7 0.00 0.13 0.03 52 1010.2
20260903213236 32 226 8.0 16.1 0.00 0.13 0.03 51 1010.3
20260903212706 32 112 8.0 19.3 0.00 0.13 0.03 53 1010.2
20260903212142 32 212 9.7 19.3 0.00 0.13 0.03 53 1010.3
20260903211617 32 250 11.3 22.5 0.00 0.13 0.03 53 1010.4
20260903211104 32 231 9.7 22.5 0.00 0.13 0.03 53 1010.4
20260903210607 32 128 9.7 19.3 0.00 0.13 0.03 52 1010.5
20260903210048 32 188 9.7 19.3 0.00 0.13 0.03 54 1010.5
20260903205545 32 199 9.7 20.9 0.00 0.13 0.03 53 1010.6
20260903205505 32 162 9.7 20.9 0.00 0.13 0.03 54 1010.6
20260903204720 32 200 8.0 19.3 0.00 0.13 0.03 53 1010.7
20260903203928 32 60 8.0 19.3 0.00 0.13 0.03 54 1010.8
20260903203401 32 148 9.7 19.3 0.00 0.13 0.03 55 1010.8
20260903202901 32 123 9.7 20.9 0.00 0.13 0.03 56 1011.0
20260903202332 32 115 9.7 20.9 0.00 0.13 0.03 55 1011.1
20260903201828 32 240 8.0 20.9 0.00 0.13 0.03 55 1011.1
20260903201327 32 250 8.0 20.9 0.00 0.13 0.03 55 1011.2
20260903200824 31 217 9.7 19.3 0.00 0.13 0.03 56 1011.2
20260903200302 31 139 9.7 19.3 0.00 0.13 0.03 57 1011.2
20260903195803 31 243 9.7 17.7 0.00 0.13 0.03 58 1011.2
20260903195233 31 165 9.7 19.3 0.00 0.13 0.03 59 1011.2
20260903194731 31 229 9.7 20.9 0.00 0.13 0.03 58 1011.2
20260903194224 31 173 8.0 20.9 0.00 0.13 0.03 59 1011.3
20260903193700 31 267 9.7 19.3 0.00 0.13 0.03 59 1011.3
20260903193352 31 162 8.0 16.1 0.00 0.13 0.03 58 1011.3
20260903192626 31 160 8.0 20.9 0.00 0.13 0.03 60 1011.4
20260903192129 30 146 9.7 19.3 0.00 0.13 0.03 60 1011.5
20260903191603 30 164 9.7 20.9 0.00 0.13 0.03 62 1011.6
20260903191046 30 120 8.0 20.9 0.00 0.13 0.03 62 1011.7
20260903190809 30 240 6.4 19.3 0.00 0.13 0.03 62 1012.0
20260903190017 30 123 8.0 19.3 0.00 0.13 0.03 62 1012.0
20260903185517 30 238 8.0 19.3 0.00 0.13 0.03 61 1012.1
20260903185218 30 160 9.7 19.3 0.00 0.13 0.03 60 1012.2
20260903184450 30 230 9.7 20.9 0.00 0.13 0.03 61 1012.2
20260903183920 30 229 11.3 22.5 0.00 0.13 0.03 64 1012.3
20260903183419 30 139 11.3 32.2 0.00 0.13 0.03 63 1012.3
20260903182915 30 117 9.7 32.2 0.00 0.13 0.03 63 1012.3
20260903182413 30 248 9.7 19.3 0.00 0.13 0.03 63 1012.4
20260903181855 29 131 11.3 25.7 0.00 0.13 0.03 65 1012.5
20260903181357 29 122 11.3 22.5 0.00 0.13 0.03 65 1012.6
20260903180830 28 246 9.7 24.1 0.00 0.13 0.03 67 1012.6
20260903180329 28 217 9.7 24.1 0.00 0.13 0.03 68 1012.7
20260903175828 28 113 9.7 22.5 0.00 0.13 0.03 69 1012.7
20260903175323 28 215 9.7 22.5 0.00 0.13 0.03 69 1012.8
20260903174820 28 112 9.7 22.5 0.00 0.13 0.03 70 1012.8
20260903174302 28 254 9.7 22.5 0.00 0.13 0.03 70 1012.8
20260903174023 28 194 11.3 22.5 0.00 0.13 0.03 70 1012.9
20260903173506 28 149 11.3 24.1 0.00 0.13 0.03 71 1012.9
20260903172747 28 163 11.3 24.1 0.00 0.13 0.03 72 1013.0
20260903172223 27 167 11.3 22.5 0.00 0.13 0.03 72 1013.0
20260903171656 27 158 11.3 19.3 0.00 0.13 0.03 73 1013.0
20260903171128 27 201 9.7 20.9 0.00 0.13 0.03 74 1013.0
20260903170626 27 153 8.0 17.7 0.00 0.13 0.03 74 1013.2
20260903170104 27 247 8.0 17.7 0.00 0.13 0.03 75 1013.1
20260903165534 27 140 8.0 16.1 0.00 0.13 0.03 75 1013.1
20260903165010 27 207 8.0 17.7 0.00 0.13 0.03 75 1013.0
20260903164441 27 231 8.0 14.5 0.00 0.13 0.03 76 1013.0
20260903163927 27 133 8.0 17.7 0.00 0.13 0.03 75 1013.0
20260903163418 27 139 8.0 16.1 0.00 0.13 0.03 75 1012.9
20260903162916 27 211 8.0 16.1 0.00 0.13 0.03 75 1012.9
20260903162355 27 129 6.4 16.1 0.00 0.13 0.03 76 1012.9
20260903161836 27 111 6.4 16.1 0.00 0.13 0.03 77 1012.8
20260903161335 27 245 6.4 16.1 0.00 0.13 0.03 76 1012.8
20260903160835 27 174 6.4 19.3 0.00 0.13 0.03 76 1012.8
20260903160314 27 121 6.4 19.3 0.00 0.13 0.03 77 1012.8
20260903155816 27 127 6.4 17.7 0.00 0.13 0.03 77 1012.8
20260903155525 27 136 8.0 17.7 0.00 0.13 0.03 77 1012.7
20260903155025 27 241 8.0 17.7 0.00 0.13 0.03 78 1012.7
20260903154303 27 184 8.0 17.7 0.00 0.13 0.03 79 1012.7
20260903153805 27 229 6.4 16.1 0.00 0.13 0.03 80 1012.7
20260903153236 26 204 4.8 12.9 0.00 0.13 0.03 81 1012.7
20260903152736 26 194 6.4 14.5 0.00 0.13 0.03 82 1012.7
20260903152500 26 137 4.8 14.5 0.00 0.13 0.03 82 1012.6
20260903152151 26 122 3.2 14.5 0.00 0.13 0.03 82 1012.7
20260903151155 26 141 6.4 14.5 0.00 0.13 0.03 83 1012.7
20260903150859 26 136 6.4 19.3 0.00 0.13 0.03 83 1012.7
20260903150132 26 139 6.4 19.3 0.00 0.13 0.03 83 1012.7
20260903145633 26 110 4.8 16.1 0.00 0.13 0.03 82 1012.7
20260903145132 26 105 4.8 16.1 0.00 0.13 0.03 82 1012.7
20260903144828 26 176 3.2 11.3 0.00 0.13 0.03 82 1012.7
20260903144044 26 190 1.6 14.5 0.00 0.13 0.03 82 1012.7
20260903143518 26 187 4.8 14.5 0.00 0.13 0.03 82 1012.7
20260903143015 26 150 4.8 17.7 0.00 0.13 0.03 82 1012.7
20260903142515 26 138 4.8 17.7 0.00 0.13 0.03 82 1012.7
20260903142008 26 136 6.4 14.5 0.00 0.13 0.03 83 1012.8
20260903141441 26 233 4.8 16.1 0.00 0.13 0.03 83 1012.7
20260903140940 26 139 4.8 12.9 0.00 0.13 0.03 83 1012.8
20260903140410 26 201 3.2 12.9 0.00 0.13 0.03 84 1012.9
20260903135904 26 161 3.2 12.9 0.00 0.13 0.03 84 1012.9
20260903135334 26 200 4.8 11.3 0.00 0.13 0.03 84 1012.8
20260903134831 26 112 4.8 11.3 0.00 0.13 0.03 85 1012.8
20260903134329 25 122 4.8 11.3 0.00 0.13 0.03 85 1012.8
20260903134249 25 144 4.8 14.5 0.00 0.13 0.03 85 1012.7
20260903133236 25 124 6.4 16.1 0.00 0.13 0.03 85 1012.7
20260903132736 25 164 6.4 16.1 0.00 0.13 0.03 85 1012.7
20260903132454 25 155 4.8 16.1 0.00 0.13 0.03 85 1012.8
20260903131930 25 124 4.8 16.1 0.00 0.13 0.03 85 1012.7
20260903131204 25 175 4.8 12.9 0.00 0.13 0.03 85 1012.6
20260903130635 25 134 3.2 11.3 0.00 0.13 0.03 85 1012.5
20260903130133 25 163 3.2 12.9 0.00 0.13 0.03 85 1012.5
20260903125605 25 86 4.8 12.9 0.00 0.13 0.03 86 1012.4
20260903125324 25 108 4.8 14.5 0.00 0.13 0.03 85 1012.4
20260903124551 25 124 4.8 14.5 0.00 0.13 0.03 85 1012.4
20260903124049 25 151 3.2 11.3 0.00 0.13 0.03 85 1012.4
20260903123527 25 146 4.8 14.5 0.00 0.13 0.03 85 1012.3
20260903123003 25 153 6.4 14.5 0.00 0.13 0.03 85 1012.2
20260903122938 25 106 6.4 14.5 0.00 0.13 0.03 85 1012.4
20260903122006 25 129 4.8 14.5 0.00 0.13 0.03 85 1012.4
20260903121503 25 134 4.8 12.9 0.00 0.13 0.03 85 1012.3
20260903121006 25 195 4.8 16.1 0.00 0.13 0.03 86 1012.2
20260903120437 25 134 3.2 16.1 0.00 0.13 0.03 86 1012.2
20260903115937 25 134 3.2 9.7 0.00 0.13 0.03 86 1012.2
20260903115408 25 110 3.2 9.7 0.00 0.13 0.03 86 1012.2
20260903114907 25 132 1.6 9.7 0.00 0.13 0.03 86 1012.1
20260903114352 25 194 1.6 9.7 0.00 0.13 0.03 86 1012.0
20260903113854 25 148 1.6 9.7 0.00 0.13 0.03 86 1011.9
20260903113325 25 170 1.6 9.7 0.00 0.13 0.03 86 1011.7
20260903113305 25 129 0.0 4.8 0.00 0.13 0.03 86 1012.0
20260903112257 25 131 1.6 4.8 0.00 0.13 0.03 86 1012.0
20260903111740 25 113 1.6 4.8 0.00 0.13 0.03 86 1012.0
20260903111235 25 221 1.6 4.8 0.00 0.13 0.03 86 1011.9
20260903110957 25 128 1.6 4.8 0.00 0.13 0.03 86 1011.9
20260903110231 24 191 1.6 4.8 0.00 0.13 0.03 86 1011.9
20260903105729 24 141 1.6 8.0 0.00 0.13 0.03 87 1012.0
20260903105444 24 143 1.6 12.9 0.00 0.13 0.03 87 1011.9
20260903104947 24 141 1.6 12.9 0.00 0.13 0.03 87 1011.7